Time,TemperatureF,DewpointF,PressureIn,WindDirection,WindDirectionDegrees,WindSpeedMPH,WindSpeedGustMPH,Humidity,HourlyPrecipIn,Conditions,Clouds,dailyrainin,SolarRadiationWatts/m^2,SoftwareType,DateUTC
2013-09-18 00:02:00,60.3,55.8,30.07,SE,140,4.0,4.0,85,0.00,,,0.00,0,Wunderground v.1.15,2013-09-18 05:02:00,
2013-09-18 00:08:00,60.4,55.9,30.07,SSE,157,2.0,5.0,85,0.00,,,0.00,0,Wunderground v.1.15,2013-09-18 05:08:00,
2013-09-18 00:13:00,60.3,55.8,30.07,SE,134,5.0,5.0,85,0.00,,,0.00,0,Wunderground v.1.15,2013-09-18 05:13:00,
2013-09-18 00:18:00,60.4,55.9,30.07,East,98,3.0,7.0,85,0.00,,,0.00,0,Wunderground v.1.15,2013-09-18 05:18:00,
2013-09-18 00:24:00,60.4,55.9,30.07,South,178,4.0,4.0,85,0.00,,,0.00,0,Wunderground v.1.15,2013-09-18 05:24:00,
2013-09-18 00:29:00,60.4,55.9,30.07,SSE,167,4.0,4.0,85,0.00,,,0.00,0,Wunderground v.1.15,2013-09-18 05:29:00,
2013-09-18 00:34:00,60.5,56.0,30.07,South,175,3.0,5.0,85,0.00,,,0.00,0,Wunderground v.1.15,2013-09-18 05:34:00,
2013-09-18 00:38:00,60.5,56.0,30.07,East,101,7.0,7.0,85,0.00,,,0.00,0,Wunderground v.1.15,2013-09-18 05:38:00,
2013-09-18 00:44:00,60.6,55.7,30.07,South,171,4.0,4.0,84,0.00,,,0.00,0,Wunderground v.1.15,2013-09-18 05:44:00,
2013-09-18 00:49:00,60.7,55.8,30.07,SSE,150,3.0,6.0,84,0.00,,,0.00,0,Wunderground v.1.15,2013-09-18 05:49:00,
2013-09-18 00:54:00,60.9,55.7,30.07,SSE,147,5.0,5.0,83,0.00,,,0.00,0,Wunderground v.1.15,2013-09-18 05:54:00,
2013-09-18 01:01:00,61.0,55.8,30.07,SSE,166,2.0,4.0,83,0.00,,,0.00,0,Wunderground v.1.15,2013-09-18 06:01:00,
2013-09-18 01:06:00,61.1,55.9,30.07,SSE,155,3.0,6.0,83,0.00,,,0.00,0,Wunderground v.1.15,2013-09-18 06:06:00,
2013-09-18 01:12:00,61.2,56.0,30.07,South,189,3.0,5.0,83,0.00,,,0.00,0,Wunderground v.1.15,2013-09-18 06:12:00,
2013-09-18 01:17:00,61.2,55.7,30.07,South,182,3.0,6.0,82,0.00,,,0.00,0,Wunderground v.1.15,2013-09-18 06:17:00,
2013-09-18 01:23:00,61.3,55.8,30.07,SSE,159,5.0,6.0,82,0.00,,,0.00,0,Wunderground v.1.15,2013-09-18 06:23:00,
2013-09-18 01:28:00,61.3,55.8,30.07,South,169,3.0,6.0,82,0.00,,,0.00,0,Wunderground v.1.15,2013-09-18 06:28:00,
2013-09-18 01:34:00,61.3,55.8,30.07,SSE,150,4.0,6.0,82,0.00,,,0.00,0,Wunderground v.1.15,2013-09-18 06:34:00,
2013-09-18 01:39:00,61.3,55.8,30.06,SSE,163,4.0,6.0,82,0.00,,,0.00,0,Wunderground v.1.15,2013-09-18 06:39:00,
2013-09-18 01:44:00,61.3,55.8,30.06,SSE,152,5.0,5.0,82,0.00,,,0.00,0,Wunderground v.1.15,2013-09-18 06:44:00,
2013-09-18 01:50:00,61.2,55.7,30.06,SSE,167,7.0,7.0,82,0.00,,,0.00,0,Wunderground v.1.15,2013-09-18 06:50:00,
2013-09-18 01:55:00,61.2,55.7,30.07,SSE,161,1.0,7.0,82,0.00,,,0.00,0,Wunderground v.1.15,2013-09-18 06:55:00,
2013-09-18 02:00:00,61.2,55.7,30.06,SSE,163,5.0,5.0,82,0.00,,,0.00,0,Wunderground v.1.15,2013-09-18 07:00:00,
2013-09-18 02:05:00,61.3,55.8,30.06,South,176,2.0,6.0,82,0.00,,,0.00,0,Wunderground v.1.15,2013-09-18 07:05:00,
2013-09-18 02:10:00,61.3,55.8,30.06,SSE,167,3.0,3.0,82,0.00,,,0.00,0,Wunderground v.1.15,2013-09-18 07:10:00,
2013-09-18 02:15:00,61.3,56.1,30.06,SSE,157,5.0,9.0,83,0.00,,,0.00,0,Wunderground v.1.15,2013-09-18 07:15:00,
2013-09-18 02:20:00,61.3,56.1,30.06,SSE,159,3.0,6.0,83,0.00,,,0.00,0,Wunderground v.1.15,2013-09-18 07:20:00,
2013-09-18 02:25:00,61.2,56.3,30.06,South,178,0.0,9.0,84,0.00,,,0.01,0,Wunderground v.1.15,2013-09-18 07:25:00,
2013-09-18 02:30:00,60.9,56.4,30.06,South,171,1.0,5.0,85,0.00,,,0.01,0,Wunderground v.1.15,2013-09-18 07:30:00,
2013-09-18 02:35:00,60.6,56.4,30.06,SSE,148,4.0,7.0,86,0.09,,,0.02,0,Wunderground v.1.15,2013-09-18 07:35:00,
2013-09-18 02:40:00,60.3,56.1,30.06,SSE,150,3.0,5.0,86,0.07,,,0.02,0,Wunderground v.1.15,2013-09-18 07:40:00,
2013-09-18 02:45:00,60.0,56.1,30.05,SSE,150,4.0,8.0,87,0.04,,,0.02,0,Wunderground v.1.15,2013-09-18 07:45:00,
2013-09-18 02:50:00,59.8,55.9,30.05,South,176,3.0,5.0,87,0.00,,,0.02,0,Wunderground v.1.15,2013-09-18 07:50:00,
2013-09-18 02:56:00,59.7,55.8,30.05,SSE,164,1.0,6.0,87,0.00,,,0.02,0,Wunderground v.1.15,2013-09-18 07:56:00,
2013-09-18 03:01:00,59.7,55.8,30.05,SSE,162,4.0,4.0,87,0.00,,,0.02,0,Wunderground v.1.15,2013-09-18 08:01:00,
2013-09-18 03:06:00,59.6,55.7,30.05,SSE,148,4.0,6.0,87,0.00,,,0.02,0,Wunderground v.1.15,2013-09-18 08:06:00,
2013-09-18 03:11:00,59.6,56.0,30.05,SSE,165,3.0,3.0,88,0.00,,,0.02,0,Wunderground v.1.15,2013-09-18 08:11:00,
2013-09-18 03:16:00,59.6,56.0,30.05,South,175,3.0,6.0,88,0.00,,,0.02,0,Wunderground v.1.15,2013-09-18 08:16:00,
2013-09-18 03:21:00,59.7,56.1,30.04,SE,129,4.0,9.0,88,0.00,,,0.02,0,Wunderground v.1.15,2013-09-18 08:21:00,
2013-09-18 03:26:00,59.8,55.9,30.04,SSE,159,1.0,9.0,87,0.00,,,0.02,0,Wunderground v.1.15,2013-09-18 08:26:00,
2013-09-18 03:31:00,59.8,55.9,30.04,SE,146,4.0,4.0,87,0.00,,,0.02,0,Wunderground v.1.15,2013-09-18 08:31:00,
2013-09-18 03:36:00,59.8,55.9,30.04,South,173,0.0,4.0,87,0.00,,,0.02,0,Wunderground v.1.15,2013-09-18 08:36:00,
2013-09-18 03:41:00,59.9,56.0,30.04,South,173,2.0,3.0,87,0.00,,,0.02,0,Wunderground v.1.15,2013-09-18 08:41:00,
2013-09-18 03:46:00,59.9,56.0,30.04,South,180,0.0,4.0,87,0.00,,,0.02,0,Wunderground v.1.15,2013-09-18 08:46:00,
2013-09-18 03:51:00,60.0,56.1,30.04,SSE,153,4.0,6.0,87,0.00,,,0.02,0,Wunderground v.1.15,2013-09-18 08:51:00,
2013-09-18 03:56:00,60.1,56.2,30.03,South,176,3.0,7.0,87,0.00,,,0.02,0,Wunderground v.1.15,2013-09-18 08:56:00,
2013-09-18 04:01:00,60.2,56.3,30.03,SSE,159,2.0,4.0,87,0.00,,,0.02,0,Wunderground v.1.15,2013-09-18 09:01:00,
2013-09-18 04:06:00,60.3,56.1,30.03,South,174,0.0,5.0,86,0.00,,,0.02,0,Wunderground v.1.15,2013-09-18 09:06:00,
2013-09-18 04:12:00,60.5,56.0,30.03,SSW,213,0.0,3.0,85,0.00,,,0.02,0,Wunderground v.1.15,2013-09-18 09:12:00,
2013-09-18 04:17:00,60.6,56.1,30.03,South,169,2.0,3.0,85,0.00,,,0.02,0,Wunderground v.1.15,2013-09-18 09:17:00,
2013-09-18 04:22:00,60.7,56.5,30.03,South,169,4.0,5.0,86,0.00,,,0.03,0,Wunderground v.1.15,2013-09-18 09:22:00,
2013-09-18 04:27:00,60.7,56.5,30.03,SSE,154,1.0,5.0,86,0.00,,,0.03,0,Wunderground v.1.15,2013-09-18 09:27:00,
2013-09-18 04:32:00,60.6,56.4,30.03,SSE,163,0.0,8.0,86,0.00,,,0.03,0,Wunderground v.1.15,2013-09-18 09:32:00,
2013-09-18 04:37:00,60.6,56.4,30.02,SSE,156,1.0,8.0,86,0.00,,,0.03,0,Wunderground v.1.15,2013-09-18 09:37:00,
2013-09-18 04:42:00,60.6,56.4,30.02,SSE,167,2.0,4.0,86,0.00,,,0.03,0,Wunderground v.1.15,2013-09-18 09:42:00,
2013-09-18 04:47:00,60.6,56.7,30.02,South,178,0.0,5.0,87,0.00,,,0.03,0,Wunderground v.1.15,2013-09-18 09:47:00,
2013-09-18 04:52:00,60.5,56.6,30.02,SSE,160,3.0,5.0,87,0.00,,,0.04,0,Wunderground v.1.15,2013-09-18 09:52:00,
2013-09-18 04:57:00,60.4,56.5,30.02,South,183,1.0,5.0,87,0.12,,,0.05,0,Wunderground v.1.15,2013-09-18 09:57:00,
2013-09-18 05:02:00,60.3,56.7,30.01,South,174,0.0,3.0,88,0.13,,,0.06,0,Wunderground v.1.15,2013-09-18 10:02:00,
2013-09-18 05:07:00,60.1,56.5,30.01,South,178,0.0,8.0,88,0.06,,,0.06,0,Wunderground v.1.15,2013-09-18 10:07:00,
2013-09-18 05:12:00,60.1,56.5,30.01,South,169,5.0,5.0,88,0.04,,,0.06,0,Wunderground v.1.15,2013-09-18 10:12:00,
2013-09-18 05:17:00,60.1,56.5,30.01,SSE,154,4.0,8.0,88,0.00,,,0.06,0,Wunderground v.1.15,2013-09-18 10:17:00,
2013-09-18 05:22:00,60.2,56.6,30.01,South,184,1.0,8.0,88,0.00,,,0.06,0,Wunderground v.1.15,2013-09-18 10:22:00,
2013-09-18 05:27:00,60.2,56.6,30.01,South,178,2.0,10.0,88,0.00,,,0.06,0,Wunderground v.1.15,2013-09-18 10:27:00,
2013-09-18 05:32:00,60.4,56.8,30.01,SE,144,5.0,5.0,88,0.00,,,0.06,0,Wunderground v.1.15,2013-09-18 10:32:00,
2013-09-18 05:37:00,60.4,56.8,30.01,South,173,2.0,9.0,88,0.00,,,0.06,0,Wunderground v.1.15,2013-09-18 10:37:00,
2013-09-18 05:42:00,60.3,56.4,30.01,SSE,168,6.0,7.0,87,0.00,,,0.06,0,Wunderground v.1.15,2013-09-18 10:42:00,
2013-09-18 05:47:00,60.3,56.4,30.01,SSE,165,4.0,9.0,87,0.00,,,0.06,0,Wunderground v.1.15,2013-09-18 10:47:00,
2013-09-18 05:52:00,60.3,56.4,30.00,SSE,166,6.0,9.0,87,0.00,,,0.06,0,Wunderground v.1.15,2013-09-18 10:52:00,
2013-09-18 05:57:00,60.2,56.6,30.00,SSE,148,4.0,9.0,88,0.00,,,0.06,0,Wunderground v.1.15,2013-09-18 10:57:00,
2013-09-18 06:02:00,60.2,56.6,30.00,South,176,3.0,5.0,88,0.00,,,0.06,0,Wunderground v.1.15,2013-09-18 11:02:00,
2013-09-18 06:07:00,60.2,56.6,30.00,SSW,205,0.0,9.0,88,0.00,,,0.06,0,Wunderground v.1.15,2013-09-18 11:07:00,
2013-09-18 06:12:00,60.2,56.6,30.00,SSE,150,2.0,8.0,88,0.00,,,0.06,0,Wunderground v.1.15,2013-09-18 11:12:00,
2013-09-18 06:17:00,60.2,56.6,30.00,SSE,151,0.0,10.0,88,0.00,,,0.06,0,Wunderground v.1.15,2013-09-18 11:17:00,
2013-09-18 06:22:00,60.2,56.6,30.00,SSW,211,6.0,7.0,88,0.00,,,0.06,0,Wunderground v.1.15,2013-09-18 11:22:00,
2013-09-18 06:27:00,60.3,56.7,30.01,SSE,153,2.0,7.0,88,0.00,,,0.06,0,Wunderground v.1.15,2013-09-18 11:27:00,
2013-09-18 06:32:00,60.4,56.8,30.01,South,174,2.0,7.0,88,0.00,,,0.06,0,Wunderground v.1.15,2013-09-18 11:32:00,
2013-09-18 06:37:00,60.4,56.8,30.01,SE,138,6.0,8.0,88,0.00,,,0.06,0,Wunderground v.1.15,2013-09-18 11:37:00,
2013-09-18 06:42:00,60.5,56.9,30.01,SSE,163,3.0,9.0,88,0.00,,,0.06,0,Wunderground v.1.15,2013-09-18 11:42:00,
2013-09-18 06:47:00,60.5,56.9,30.01,SSE,166,3.0,9.0,88,0.00,,,0.06,0,Wunderground v.1.15,2013-09-18 11:47:00,
2013-09-18 06:52:00,60.6,57.0,30.01,South,175,3.0,5.0,88,0.00,,,0.06,0,Wunderground v.1.15,2013-09-18 11:52:00,
2013-09-18 06:57:00,60.6,57.0,30.00,South,169,0.0,7.0,88,0.00,,,0.06,0,Wunderground v.1.15,2013-09-18 11:57:00,
2013-09-18 07:02:00,60.6,57.0,30.00,South,173,3.0,8.0,88,0.00,,,0.06,0,Wunderground v.1.15,2013-09-18 12:02:00,
2013-09-18 07:07:00,60.6,57.0,30.00,SE,142,2.0,8.0,88,0.00,,,0.06,5,Wunderground v.1.15,2013-09-18 12:07:00,
2013-09-18 07:12:00,60.6,57.0,30.01,SSE,162,3.0,5.0,88,0.00,,,0.06,14,Wunderground v.1.15,2013-09-18 12:12:00,
2013-09-18 07:17:00,60.6,57.0,30.00,SSE,163,1.0,6.0,88,0.00,,,0.06,19,Wunderground v.1.15,2013-09-18 12:17:00,
2013-09-18 07:22:00,60.6,57.0,30.01,SSE,166,3.0,7.0,88,0.00,,,0.06,23,Wunderground v.1.15,2013-09-18 12:22:00,
2013-09-18 07:28:00,60.6,57.0,30.01,SSE,159,4.0,7.0,88,0.00,,,0.06,28,Wunderground v.1.15,2013-09-18 12:28:00,
2013-09-18 07:33:00,60.6,57.0,30.01,SSE,147,3.0,7.0,88,0.00,,,0.06,32,Wunderground v.1.15,2013-09-18 12:33:00,
2013-09-18 07:38:00,60.7,57.1,30.01,South,176,3.0,7.0,88,0.00,,,0.06,35,Wunderground v.1.15,2013-09-18 12:38:00,
2013-09-18 07:43:00,60.7,57.1,30.00,SSE,165,2.0,7.0,88,0.00,,,0.06,42,Wunderground v.1.15,2013-09-18 12:43:00,
2013-09-18 07:48:00,60.8,57.2,30.00,SSE,157,1.0,7.0,88,0.00,,,0.06,42,Wunderground v.1.15,2013-09-18 12:48:00,
2013-09-18 07:53:00,60.8,57.2,30.00,SSE,161,0.0,5.0,88,0.00,,,0.06,47,Wunderground v.1.15,2013-09-18 12:53:00,
2013-09-18 07:58:00,60.9,57.0,30.00,South,186,2.0,7.0,87,0.00,,,0.06,51,Wunderground v.1.15,2013-09-18 12:58:00,
2013-09-18 08:03:00,61.1,57.2,30.00,SSE,168,3.0,8.0,87,0.00,,,0.06,54,Wunderground v.1.15,2013-09-18 13:03:00,
2013-09-18 08:08:00,61.1,57.2,30.00,SSE,166,2.0,8.0,87,0.00,,,0.06,58,Wunderground v.1.15,2013-09-18 13:08:00,
2013-09-18 08:13:00,61.2,57.0,30.00,SSE,164,3.0,8.0,86,0.00,,,0.06,65,Wunderground v.1.15,2013-09-18 13:13:00,
2013-09-18 08:18:00,61.3,57.1,30.00,SSE,160,4.0,8.0,86,0.00,,,0.06,69,Wunderground v.1.15,2013-09-18 13:18:00,
2013-09-18 08:23:00,61.3,57.1,29.99,SSE,156,3.0,6.0,86,0.00,,,0.06,72,Wunderground v.1.15,2013-09-18 13:23:00,
2013-09-18 08:28:00,61.4,57.2,29.99,South,172,0.0,7.0,86,0.00,,,0.06,83,Wunderground v.1.15,2013-09-18 13:28:00,
2013-09-18 08:33:00,61.5,57.3,29.99,SSE,163,1.0,7.0,86,0.00,,,0.06,97,Wunderground v.1.15,2013-09-18 13:33:00,
2013-09-18 08:38:00,61.6,57.4,30.00,SSE,161,0.0,7.0,86,0.00,,,0.06,97,Wunderground v.1.15,2013-09-18 13:38:00,
2013-09-18 08:43:00,61.7,57.5,30.00,South,175,5.0,8.0,86,0.00,,,0.06,90,Wunderground v.1.15,2013-09-18 13:43:00,
2013-09-18 08:48:00,61.7,57.5,29.99,SSE,159,5.0,8.0,86,0.00,,,0.06,93,Wunderground v.1.15,2013-09-18 13:48:00,
2013-09-18 08:53:00,61.7,57.5,29.99,SSE,162,5.0,7.0,86,0.00,,,0.06,93,Wunderground v.1.15,2013-09-18 13:53:00,
2013-09-18 08:58:00,61.7,57.5,29.99,South,171,4.0,7.0,86,0.00,,,0.06,88,Wunderground v.1.15,2013-09-18 13:58:00,
2013-09-18 09:03:00,61.7,57.5,29.99,SSE,147,3.0,7.0,86,0.00,,,0.06,134,Wunderground v.1.15,2013-09-18 14:03:00,
2013-09-18 09:08:00,61.8,57.6,29.99,South,180,1.0,7.0,86,0.00,,,0.06,174,Wunderground v.1.15,2013-09-18 14:08:00,
2013-09-18 09:13:00,62.0,58.1,29.99,South,173,2.0,7.0,87,0.00,,,0.06,497,Wunderground v.1.15,2013-09-18 14:13:00,
2013-09-18 09:18:00,62.5,58.3,29.99,SSE,156,4.0,7.0,86,0.00,,,0.06,230,Wunderground v.1.15,2013-09-18 14:18:00,
2013-09-18 09:23:00,63.0,58.4,29.99,SSE,164,4.0,6.0,85,0.00,,,0.06,253,Wunderground v.1.15,2013-09-18 14:23:00,
2013-09-18 09:28:00,63.3,58.4,29.99,SE,139,5.0,7.0,84,0.00,,,0.06,243,Wunderground v.1.15,2013-09-18 14:28:00,
2013-09-18 09:33:00,63.7,58.8,29.99,SSE,165,3.0,6.0,84,0.00,,,0.06,371,Wunderground v.1.15,2013-09-18 14:33:00,
2013-09-18 09:38:00,64.0,58.7,29.99,SE,126,2.0,6.0,83,0.00,,,0.06,387,Wunderground v.1.15,2013-09-18 14:38:00,
2013-09-18 09:43:00,64.5,59.2,29.98,SSE,161,1.0,6.0,83,0.00,,,0.06,520,Wunderground v.1.15,2013-09-18 14:43:00,
2013-09-18 09:49:00,64.9,59.3,29.98,SSE,159,3.0,6.0,82,0.00,,,0.06,362,Wunderground v.1.15,2013-09-18 14:49:00,
2013-09-18 09:54:00,65.1,59.5,29.98,SSE,157,0.0,6.0,82,0.00,,,0.06,524,Wunderground v.1.15,2013-09-18 14:54:00,
2013-09-18 09:59:00,65.5,60.2,29.98,ESE,121,2.0,6.0,83,0.00,,,0.06,520,Wunderground v.1.15,2013-09-18 14:59:00,
2013-09-18 10:04:00,65.9,60.2,29.97,South,180,2.0,7.0,82,0.00,,,0.06,499,Wunderground v.1.15,2013-09-18 15:04:00,
2013-09-18 10:09:00,66.4,60.4,29.97,SSE,167,6.0,7.0,81,0.00,,,0.06,582,Wunderground v.1.15,2013-09-18 15:09:00,
2013-09-18 10:14:00,66.9,60.5,29.97,South,187,7.0,7.0,80,0.00,,,0.06,652,Wunderground v.1.15,2013-09-18 15:14:00,
2013-09-18 10:19:00,67.4,61.0,29.97,SE,133,6.0,9.0,80,0.00,,,0.06,670,Wunderground v.1.15,2013-09-18 15:19:00,
2013-09-18 10:24:00,67.8,61.0,29.96,SSE,158,5.0,9.0,79,0.00,,,0.06,577,Wunderground v.1.15,2013-09-18 15:24:00,
2013-09-18 10:29:00,68.2,61.1,29.97,SSE,165,4.0,9.0,78,0.00,,,0.06,281,Wunderground v.1.15,2013-09-18 15:29:00,
2013-09-18 10:34:00,68.3,61.2,29.97,West,261,0.0,7.0,78,0.00,,,0.06,373,Wunderground v.1.15,2013-09-18 15:34:00,
2013-09-18 10:39:00,68.5,61.7,29.97,South,179,7.0,7.0,79,0.00,,,0.06,388,Wunderground v.1.15,2013-09-18 15:39:00,
2013-09-18 10:44:00,68.6,62.2,29.97,South,169,8.0,8.0,80,0.00,,,0.06,362,Wunderground v.1.15,2013-09-18 15:44:00,
2013-09-18 10:49:00,68.9,62.5,29.96,South,172,4.0,9.0,80,0.00,,,0.06,464,Wunderground v.1.15,2013-09-18 15:49:00,
2013-09-18 10:54:00,69.4,62.6,29.96,SE,142,0.0,10.0,79,0.00,,,0.06,417,Wunderground v.1.15,2013-09-18 15:54:00,
2013-09-18 10:59:00,69.8,62.6,29.97,WSW,245,4.0,10.0,78,0.00,,,0.06,415,Wunderground v.1.15,2013-09-18 15:59:00,
2013-09-18 11:01:00,69.9,62.7,29.97,SSE,161,5.0,8.0,78,0.00,,,0.06,427,Wunderground v.1.15,2013-09-18 16:01:00,
2013-09-18 11:06:00,70.1,63.3,29.97,West,273,3.0,9.0,79,0.00,,,0.06,390,Wunderground v.1.15,2013-09-18 16:06:00,
2013-09-18 11:11:00,70.2,63.4,29.96,South,175,3.0,6.0,79,0.00,,,0.06,429,Wunderground v.1.15,2013-09-18 16:11:00,
2013-09-18 11:16:00,70.4,63.9,29.96,SSW,194,1.0,9.0,80,0.00,,,0.06,501,Wunderground v.1.15,2013-09-18 16:16:00,
2013-09-18 11:21:00,70.7,63.9,29.96,SSE,162,1.0,7.0,79,0.00,,,0.06,438,Wunderground v.1.15,2013-09-18 16:21:00,
2013-09-18 11:26:00,71.1,63.9,29.97,SSW,192,2.0,9.0,78,0.00,,,0.06,448,Wunderground v.1.15,2013-09-18 16:26:00,
2013-09-18 11:31:00,71.4,64.2,29.96,WSW,242,2.0,6.0,78,0.00,,,0.06,396,Wunderground v.1.15,2013-09-18 16:31:00,
2013-09-18 11:36:00,71.6,64.0,29.97,SW,219,3.0,8.0,77,0.00,,,0.06,371,Wunderground v.1.15,2013-09-18 16:36:00,
2013-09-18 11:41:00,71.9,64.7,29.97,SSW,207,0.0,6.0,78,0.00,,,0.06,473,Wunderground v.1.15,2013-09-18 16:41:00,
2013-09-18 11:46:00,72.1,64.9,29.96,East,86,1.0,10.0,78,0.00,,,0.06,330,Wunderground v.1.15,2013-09-18 16:46:00,
2013-09-18 11:51:00,72.2,64.6,29.96,SSE,154,0.0,3.0,77,0.00,,,0.06,320,Wunderground v.1.15,2013-09-18 16:51:00,
2013-09-18 11:56:00,72.4,64.8,29.96,SSW,207,5.0,6.0,77,0.00,,,0.06,336,Wunderground v.1.15,2013-09-18 16:56:00,
2013-09-18 12:01:00,72.5,65.2,29.96,SSE,154,3.0,3.0,78,0.00,,,0.06,306,Wunderground v.1.15,2013-09-18 17:01:00,
2013-09-18 12:07:00,72.7,65.4,29.95,SW,222,0.0,5.0,78,0.00,,,0.06,489,Wunderground v.1.15,2013-09-18 17:07:00,
2013-09-18 12:12:00,73.0,65.7,29.95,SSW,200,0.0,5.0,78,0.00,,,0.06,376,Wunderground v.1.15,2013-09-18 17:12:00,
2013-09-18 12:17:00,73.3,65.7,29.95,SE,128,2.0,5.0,77,0.00,,,0.06,371,Wunderground v.1.15,2013-09-18 17:17:00,
2013-09-18 12:22:00,73.5,65.8,29.95,SE,133,3.0,6.0,77,0.00,,,0.06,362,Wunderground v.1.15,2013-09-18 17:22:00,
2013-09-18 12:27:00,73.6,65.9,29.94,WSW,239,1.0,9.0,77,0.00,,,0.06,309,Wunderground v.1.15,2013-09-18 17:27:00,
2013-09-18 12:32:00,73.6,65.9,29.94,SE,140,5.0,7.0,77,0.00,,,0.06,338,Wunderground v.1.15,2013-09-18 17:32:00,
2013-09-18 12:37:00,73.6,65.9,29.93,WSW,241,2.0,8.0,77,0.00,,,0.06,343,Wunderground v.1.15,2013-09-18 17:37:00,
2013-09-18 12:42:00,73.5,65.5,29.93,West,265,5.0,5.0,76,0.00,,,0.06,353,Wunderground v.1.15,2013-09-18 17:42:00,
2013-09-18 12:47:00,73.5,65.8,29.93,SSE,163,0.0,6.0,77,0.00,,,0.06,413,Wunderground v.1.15,2013-09-18 17:47:00,
2013-09-18 12:52:00,73.6,65.9,29.93,SW,215,2.0,9.0,77,0.00,,,0.06,431,Wunderground v.1.15,2013-09-18 17:52:00,
2013-09-18 12:57:00,73.6,65.6,29.93,SSE,162,2.0,9.0,76,0.00,,,0.06,366,Wunderground v.1.15,2013-09-18 17:57:00,
2013-09-18 13:02:00,73.6,65.9,29.92,SSE,166,0.0,7.0,77,0.00,,,0.06,392,Wunderground v.1.15,2013-09-18 18:02:00,
2013-09-18 13:08:00,73.6,65.9,29.92,SSE,161,1.0,8.0,77,0.00,,,0.06,397,Wunderground v.1.15,2013-09-18 18:08:00,
2013-09-18 13:13:00,73.7,65.7,29.92,WSW,243,1.0,5.0,76,0.00,,,0.06,338,Wunderground v.1.15,2013-09-18 18:13:00,
2013-09-18 13:18:00,73.7,66.0,29.92,SW,232,1.0,8.0,77,0.00,,,0.06,504,Wunderground v.1.15,2013-09-18 18:18:00,
2013-09-18 13:23:00,73.9,65.9,29.92,South,183,2.0,10.0,76,0.00,,,0.06,543,Wunderground v.1.15,2013-09-18 18:23:00,
2013-09-18 13:28:00,74.0,65.6,29.92,SW,229,0.0,10.0,75,0.00,,,0.06,485,Wunderground v.1.15,2013-09-18 18:28:00,
2013-09-18 13:33:00,74.2,65.8,29.92,SSW,207,1.0,5.0,75,0.00,,,0.06,427,Wunderground v.1.15,2013-09-18 18:33:00,
2013-09-18 13:38:00,74.2,65.4,29.91,SSE,165,3.0,7.0,74,0.00,,,0.06,427,Wunderground v.1.15,2013-09-18 18:38:00,
2013-09-18 13:43:00,74.0,65.2,29.91,SSE,147,5.0,6.0,74,0.00,,,0.06,327,Wunderground v.1.15,2013-09-18 18:43:00,
2013-09-18 13:48:00,73.8,65.4,29.91,SSE,156,1.0,7.0,75,0.00,,,0.06,490,Wunderground v.1.15,2013-09-18 18:48:00,
2013-09-18 13:53:00,73.8,65.8,29.91,SW,229,4.0,5.0,76,0.00,,,0.06,831,Wunderground v.1.15,2013-09-18 18:53:00,
2013-09-18 13:58:00,74.2,65.8,29.90,SE,146,0.0,7.0,75,0.00,,,0.06,731,Wunderground v.1.15,2013-09-18 18:58:00,
2013-09-18 14:03:00,74.6,65.8,29.90,SSE,157,6.0,6.0,74,0.00,,,0.06,615,Wunderground v.1.15,2013-09-18 19:03:00,
2013-09-18 14:08:00,75.0,66.5,29.90,WSW,252,1.0,6.0,75,0.00,,,0.06,696,Wunderground v.1.15,2013-09-18 19:08:00,
2013-09-18 14:13:00,75.3,66.0,29.90,SSE,147,0.0,6.0,73,0.00,,,0.06,541,Wunderground v.1.15,2013-09-18 19:13:00,
2013-09-18 14:18:00,75.3,66.0,29.89,South,171,1.0,10.0,73,0.00,,,0.06,381,Wunderground v.1.15,2013-09-18 19:18:00,
2013-09-18 14:23:00,75.0,66.1,29.89,SW,220,3.0,13.0,74,0.00,,,0.06,594,Wunderground v.1.15,2013-09-18 19:23:00,
2013-09-18 14:29:00,74.6,65.8,29.89,SSE,165,7.0,13.0,74,0.00,,,0.06,343,Wunderground v.1.15,2013-09-18 19:29:00,
2013-09-18 14:34:00,74.1,65.7,29.88,South,174,3.0,7.0,75,0.00,,,0.06,459,Wunderground v.1.15,2013-09-18 19:34:00,
2013-09-18 14:39:00,73.9,65.9,29.89,South,186,1.0,9.0,76,0.00,,,0.06,427,Wunderground v.1.15,2013-09-18 19:39:00,
2013-09-18 14:44:00,73.7,65.7,29.88,SE,146,6.0,9.0,76,0.00,,,0.06,376,Wunderground v.1.15,2013-09-18 19:44:00,
2013-09-18 14:49:00,73.6,65.9,29.88,SSE,163,5.0,9.0,77,0.00,,,0.06,420,Wunderground v.1.15,2013-09-18 19:49:00,
2013-09-18 14:54:00,73.6,65.9,29.88,SSE,155,4.0,7.0,77,0.00,,,0.06,431,Wunderground v.1.15,2013-09-18 19:54:00,
2013-09-18 14:59:00,73.7,66.0,29.88,SSE,156,4.0,7.0,77,0.00,,,0.06,476,Wunderground v.1.15,2013-09-18 19:59:00,
2013-09-18 15:04:00,73.7,66.0,29.88,SSE,161,1.0,7.0,77,0.00,,,0.06,339,Wunderground v.1.15,2013-09-18 20:04:00,
2013-09-18 15:09:00,73.8,66.1,29.88,SW,221,1.0,7.0,77,0.00,,,0.06,327,Wunderground v.1.15,2013-09-18 20:09:00,
2013-09-18 15:14:00,73.8,66.1,29.88,SSE,163,5.0,7.0,77,0.00,,,0.06,462,Wunderground v.1.15,2013-09-18 20:14:00,
2013-09-18 15:19:00,74.0,66.3,29.88,SSE,167,6.0,9.0,77,0.00,,,0.06,285,Wunderground v.1.15,2013-09-18 20:19:00,
2013-09-18 15:24:00,74.0,66.0,29.88,SSE,165,2.0,7.0,76,0.00,,,0.06,476,Wunderground v.1.15,2013-09-18 20:24:00,
2013-09-18 15:29:00,74.0,66.3,29.88,SSE,156,3.0,8.0,77,0.00,,,0.06,613,Wunderground v.1.15,2013-09-18 20:29:00,
2013-09-18 15:34:00,74.2,66.5,29.88,SSE,167,6.0,9.0,77,0.00,,,0.06,418,Wunderground v.1.15,2013-09-18 20:34:00,
2013-09-18 15:39:00,74.3,66.2,29.88,SSE,157,4.0,9.0,76,0.00,,,0.06,257,Wunderground v.1.15,2013-09-18 20:39:00,
2013-09-18 15:44:00,73.9,66.2,29.88,West,260,0.0,12.0,77,0.00,,,0.06,285,Wunderground v.1.15,2013-09-18 20:44:00,
2013-09-18 15:49:00,73.7,65.7,29.88,South,169,7.0,12.0,76,0.00,,,0.06,207,Wunderground v.1.15,2013-09-18 20:49:00,
2013-09-18 15:54:00,73.4,65.7,29.88,ESE,122,2.0,9.0,77,0.00,,,0.06,202,Wunderground v.1.15,2013-09-18 20:54:00,
2013-09-18 15:59:00,73.1,65.5,29.88,West,261,1.0,9.0,77,0.00,,,0.06,213,Wunderground v.1.15,2013-09-18 20:59:00,
2013-09-18 16:04:00,72.9,65.6,29.87,SSE,165,2.0,6.0,78,0.00,,,0.06,255,Wunderground v.1.15,2013-09-18 21:04:00,
2013-09-18 16:09:00,72.8,65.5,29.88,SSE,163,1.0,7.0,78,0.00,,,0.06,272,Wunderground v.1.15,2013-09-18 21:09:00,
2013-09-18 16:14:00,72.8,65.9,29.87,South,177,0.0,4.0,79,0.00,,,0.06,381,Wunderground v.1.15,2013-09-18 21:14:00,
2013-09-18 16:20:00,73.0,66.5,29.87,South,174,2.0,2.0,80,0.00,,,0.06,480,Wunderground v.1.15,2013-09-18 21:20:00,
2013-09-18 16:25:00,73.1,66.2,29.87,SSE,162,6.0,8.0,79,0.00,,,0.06,469,Wunderground v.1.15,2013-09-18 21:25:00,
2013-09-18 16:30:00,73.2,66.3,29.87,South,188,7.0,7.0,79,0.00,,,0.06,418,Wunderground v.1.15,2013-09-18 21:30:00,
2013-09-18 16:35:00,73.2,65.9,29.87,South,182,2.0,9.0,78,0.00,,,0.06,332,Wunderground v.1.15,2013-09-18 21:35:00,
2013-09-18 16:40:00,73.2,66.3,29.87,SSE,160,5.0,5.0,79,0.00,,,0.06,360,Wunderground v.1.15,2013-09-18 21:40:00,
2013-09-18 16:45:00,73.1,66.2,29.87,SSE,157,4.0,10.0,79,0.00,,,0.06,309,Wunderground v.1.15,2013-09-18 21:45:00,
2013-09-18 16:50:00,73.1,66.6,29.87,SSE,165,7.0,8.0,80,0.00,,,0.06,325,Wunderground v.1.15,2013-09-18 21:50:00,
2013-09-18 16:55:00,73.1,66.2,29.87,SSE,159,5.0,9.0,79,0.00,,,0.06,316,Wunderground v.1.15,2013-09-18 21:55:00,
2013-09-18 17:00:00,73.2,66.3,29.87,SSE,165,4.0,5.0,79,0.00,,,0.06,299,Wunderground v.1.15,2013-09-18 22:00:00,
2013-09-18 17:05:00,73.1,66.6,29.87,SSE,156,5.0,10.0,80,0.00,,,0.06,276,Wunderground v.1.15,2013-09-18 22:05:00,
2013-09-18 17:10:00,73.1,66.6,29.87,SSE,151,6.0,6.0,80,0.00,,,0.06,264,Wunderground v.1.15,2013-09-18 22:10:00,
2013-09-18 17:15:00,73.1,66.9,29.87,South,171,3.0,7.0,81,0.00,,,0.06,244,Wunderground v.1.15,2013-09-18 22:15:00,
2013-09-18 17:20:00,73.1,66.9,29.87,South,171,4.0,5.0,81,0.00,,,0.06,223,Wunderground v.1.15,2013-09-18 22:20:00,
2013-09-18 17:25:00,73.1,66.9,29.87,SSE,164,4.0,8.0,81,0.00,,,0.06,206,Wunderground v.1.15,2013-09-18 22:25:00,
2013-09-18 17:30:00,73.0,67.2,29.86,SSE,155,3.0,6.0,82,0.00,,,0.06,188,Wunderground v.1.15,2013-09-18 22:30:00,
2013-09-18 17:35:00,73.0,67.2,29.86,SSE,149,3.0,8.0,82,0.00,,,0.06,165,Wunderground v.1.15,2013-09-18 22:35:00,
2013-09-18 17:40:00,72.8,67.0,29.86,SSE,159,5.0,5.0,82,0.00,,,0.06,98,Wunderground v.1.15,2013-09-18 22:40:00,
2013-09-18 17:45:00,72.8,67.0,29.86,SW,227,3.0,8.0,82,0.00,,,0.06,144,Wunderground v.1.15,2013-09-18 22:45:00,
2013-09-18 17:50:00,72.7,67.2,29.86,SSE,156,3.0,5.0,83,0.00,,,0.06,123,Wunderground v.1.15,2013-09-18 22:50:00,
2013-09-18 17:55:00,72.7,67.2,29.86,SSE,157,3.0,7.0,83,0.00,,,0.06,86,Wunderground v.1.15,2013-09-18 22:55:00,
2013-09-18 18:00:00,72.6,67.1,29.85,SSE,163,3.0,5.0,83,0.00,,,0.06,49,Wunderground v.1.15,2013-09-18 23:00:00,
2013-09-18 18:05:00,72.5,67.0,29.85,SSE,153,4.0,8.0,83,0.00,,,0.06,44,Wunderground v.1.15,2013-09-18 23:05:00,
2013-09-18 18:10:00,72.4,67.3,29.86,SSE,158,4.0,7.0,84,0.00,,,0.06,42,Wunderground v.1.15,2013-09-18 23:10:00,
2013-09-18 18:15:00,72.3,67.2,29.86,South,178,1.0,8.0,84,0.00,,,0.06,39,Wunderground v.1.15,2013-09-18 23:15:00,
2013-09-18 18:20:00,72.2,67.1,29.85,SE,142,1.0,4.0,84,0.00,,,0.06,35,Wunderground v.1.15,2013-09-18 23:20:00,
2013-09-18 18:25:00,72.1,67.0,29.85,SSE,163,3.0,8.0,84,0.00,,,0.06,32,Wunderground v.1.15,2013-09-18 23:25:00,
2013-09-18 18:30:00,72.0,66.9,29.86,SSE,156,3.0,4.0,84,0.00,,,0.06,28,Wunderground v.1.15,2013-09-18 23:30:00,
2013-09-18 18:35:00,71.9,66.8,29.86,SSE,163,1.0,8.0,84,0.00,,,0.06,25,Wunderground v.1.15,2013-09-18 23:35:00,
2013-09-18 18:40:00,71.8,67.0,29.85,SSE,155,5.0,8.0,85,0.00,,,0.06,19,Wunderground v.1.15,2013-09-18 23:40:00,
2013-09-18 18:45:00,71.6,66.8,29.85,South,172,4.0,8.0,85,0.00,,,0.06,16,Wunderground v.1.15,2013-09-18 23:45:00,
2013-09-18 18:50:00,71.5,66.8,29.85,SSE,148,2.0,5.0,85,0.00,,,0.06,12,Wunderground v.1.15,2013-09-18 23:50:00,
2013-09-18 18:55:00,71.3,66.6,29.85,South,175,3.0,6.0,85,0.00,,,0.06,7,Wunderground v.1.15,2013-09-18 23:55:00,
2013-09-18 19:00:00,71.2,66.5,29.85,SSE,165,3.0,6.0,85,0.00,,,0.06,5,Wunderground v.1.15,2013-09-19 00:00:00,
2013-09-18 19:06:00,71.1,66.7,29.85,SSE,165,3.0,7.0,86,0.00,,,0.06,0,Wunderground v.1.15,2013-09-19 00:06:00,
2013-09-18 19:11:00,71.0,66.6,29.85,SSE,161,3.0,5.0,86,0.00,,,0.06,0,Wunderground v.1.15,2013-09-19 00:11:00,
2013-09-18 19:16:00,70.9,66.5,29.85,SSW,196,3.0,7.0,86,0.00,,,0.06,0,Wunderground v.1.15,2013-09-19 00:16:00,
2013-09-18 19:21:00,70.8,66.4,29.85,South,180,3.0,5.0,86,0.00,,,0.06,0,Wunderground v.1.15,2013-09-19 00:21:00,
2013-09-18 19:26:00,70.7,66.6,29.85,South,175,3.0,6.0,87,0.00,,,0.06,0,Wunderground v.1.15,2013-09-19 00:26:00,
2013-09-18 19:31:00,70.6,66.5,29.85,South,171,4.0,4.0,87,0.00,,,0.06,0,Wunderground v.1.15,2013-09-19 00:31:00,
2013-09-18 19:36:00,70.5,66.4,29.85,South,172,3.0,8.0,87,0.00,,,0.06,0,Wunderground v.1.15,2013-09-19 00:36:00,
2013-09-18 19:41:00,70.4,66.7,29.85,SSE,163,4.0,6.0,88,0.00,,,0.06,0,Wunderground v.1.15,2013-09-19 00:41:00,
2013-09-18 19:46:00,70.4,66.7,29.85,SSE,161,4.0,7.0,88,0.00,,,0.06,0,Wunderground v.1.15,2013-09-19 00:46:00,
2013-09-18 19:51:00,70.3,66.6,29.85,SSE,167,5.0,6.0,88,0.00,,,0.06,0,Wunderground v.1.15,2013-09-19 00:51:00,
2013-09-18 19:56:00,70.2,66.5,29.86,SSE,160,4.0,7.0,88,0.00,,,0.06,0,Wunderground v.1.15,2013-09-19 00:56:00,
2013-09-18 20:01:00,70.2,66.5,29.86,SSE,165,4.0,8.0,88,0.00,,,0.06,0,Wunderground v.1.15,2013-09-19 01:01:00,
2013-09-18 20:06:00,70.2,66.5,29.86,SSE,159,3.0,8.0,88,0.00,,,0.06,0,Wunderground v.1.15,2013-09-19 01:06:00,
2013-09-18 20:11:00,70.1,66.7,29.86,SSE,148,7.0,7.0,89,0.00,,,0.06,0,Wunderground v.1.15,2013-09-19 01:11:00,
2013-09-18 20:16:00,70.1,66.7,29.86,SSE,158,5.0,7.0,89,0.00,,,0.06,0,Wunderground v.1.15,2013-09-19 01:16:00,
2013-09-18 20:21:00,70.1,66.7,29.86,SSE,166,5.0,5.0,89,0.00,,,0.06,0,Wunderground v.1.15,2013-09-19 01:21:00,
2013-09-18 20:26:00,70.0,66.6,29.87,SSE,168,4.0,8.0,89,0.00,,,0.06,0,Wunderground v.1.15,2013-09-19 01:26:00,
2013-09-18 20:31:00,70.0,66.6,29.87,South,182,3.0,6.0,89,0.00,,,0.06,0,Wunderground v.1.15,2013-09-19 01:31:00,
2013-09-18 20:36:00,69.9,66.5,29.87,East,96,5.0,8.0,89,0.00,,,0.06,0,Wunderground v.1.15,2013-09-19 01:36:00,
2013-09-18 20:41:00,69.9,66.8,29.87,SSE,167,8.0,8.0,90,0.00,,,0.06,0,Wunderground v.1.15,2013-09-19 01:41:00,
2013-09-18 20:46:00,69.8,66.7,29.86,SSE,166,3.0,8.0,90,0.00,,,0.06,0,Wunderground v.1.15,2013-09-19 01:46:00,
2013-09-18 20:51:00,69.8,66.7,29.86,SSE,155,3.0,6.0,90,0.00,,,0.06,0,Wunderground v.1.15,2013-09-19 01:51:00,
2013-09-18 20:56:00,69.7,66.6,29.86,South,175,4.0,7.0,90,0.00,,,0.06,0,Wunderground v.1.15,2013-09-19 01:56:00,
2013-09-18 21:01:00,69.7,66.6,29.87,South,169,3.0,7.0,90,0.00,,,0.06,0,Wunderground v.1.15,2013-09-19 02:01:00,
2013-09-18 21:07:00,69.6,66.5,29.87,SSE,168,3.0,7.0,90,0.00,,,0.06,0,Wunderground v.1.15,2013-09-19 02:07:00,
2013-09-18 21:12:00,69.5,66.4,29.86,SSE,167,4.0,6.0,90,0.00,,,0.06,0,Wunderground v.1.15,2013-09-19 02:12:00,
2013-09-18 21:17:00,69.5,66.8,29.86,South,171,4.0,7.0,91,0.00,,,0.06,0,Wunderground v.1.15,2013-09-19 02:17:00,
2013-09-18 21:22:00,69.4,66.7,29.86,SSE,168,4.0,7.0,91,0.00,,,0.06,0,Wunderground v.1.15,2013-09-19 02:22:00,
2013-09-18 21:27:00,69.4,66.7,29.86,South,169,4.0,7.0,91,0.00,,,0.06,0,Wunderground v.1.15,2013-09-19 02:27:00,
2013-09-18 21:32:00,69.4,66.7,29.86,South,171,4.0,6.0,91,0.00,,,0.06,0,Wunderground v.1.15,2013-09-19 02:32:00,
2013-09-18 21:37:00,69.4,66.7,29.86,South,171,4.0,6.0,91,0.00,,,0.06,0,Wunderground v.1.15,2013-09-19 02:37:00,
2013-09-18 21:42:00,69.3,66.6,29.86,SE,140,6.0,6.0,91,0.00,,,0.06,0,Wunderground v.1.15,2013-09-19 02:42:00,
2013-09-18 21:47:00,69.3,66.9,29.86,SSE,159,4.0,7.0,92,0.00,,,0.06,0,Wunderground v.1.15,2013-09-19 02:47:00,
2013-09-18 21:52:00,69.2,66.8,29.86,South,173,2.0,7.0,92,0.00,,,0.06,0,Wunderground v.1.15,2013-09-19 02:52:00,
2013-09-18 21:57:00,69.2,66.8,29.86,South,171,4.0,7.0,92,0.00,,,0.06,0,Wunderground v.1.15,2013-09-19 02:57:00,
2013-09-18 22:02:00,69.1,66.7,29.86,SSE,165,3.0,6.0,92,0.00,,,0.06,0,Wunderground v.1.15,2013-09-19 03:02:00,
2013-09-18 22:07:00,69.1,66.7,29.86,SSE,157,4.0,6.0,92,0.00,,,0.06,0,Wunderground v.1.15,2013-09-19 03:07:00,
2013-09-18 22:12:00,69.1,66.7,29.86,South,179,1.0,4.0,92,0.00,,,0.06,0,Wunderground v.1.15,2013-09-19 03:12:00,
2013-09-18 22:17:00,69.0,66.6,29.86,SSE,165,2.0,6.0,92,0.00,,,0.06,0,Wunderground v.1.15,2013-09-19 03:17:00,
2013-09-18 22:22:00,69.0,66.6,29.86,South,171,2.0,3.0,92,0.00,,,0.06,0,Wunderground v.1.15,2013-09-19 03:22:00,
2013-09-18 22:27:00,69.0,66.6,29.86,South,171,3.0,5.0,92,0.00,,,0.06,0,Wunderground v.1.15,2013-09-19 03:27:00,
2013-09-18 22:32:00,68.9,66.5,29.86,SSE,156,2.0,5.0,92,0.00,,,0.06,0,Wunderground v.1.15,2013-09-19 03:32:00,
2013-09-18 22:37:00,69.0,66.6,29.86,South,178,5.0,7.0,92,0.00,,,0.06,0,Wunderground v.1.15,2013-09-19 03:37:00,
2013-09-18 22:42:00,69.0,66.6,29.86,South,173,2.0,7.0,92,0.00,,,0.06,0,Wunderground v.1.15,2013-09-19 03:42:00,
2013-09-18 22:47:00,69.0,66.6,29.86,South,169,2.0,7.0,92,0.00,,,0.06,0,Wunderground v.1.15,2013-09-19 03:47:00,
2013-09-18 22:52:00,69.0,66.6,29.86,South,182,1.0,4.0,92,0.00,,,0.06,0,Wunderground v.1.15,2013-09-19 03:52:00,
2013-09-18 22:57:00,69.0,66.6,29.86,South,170,3.0,4.0,92,0.00,,,0.06,0,Wunderground v.1.15,2013-09-19 03:57:00,
2013-09-18 23:01:00,69.0,66.6,29.86,SSW,202,1.0,2.0,92,0.00,,,0.06,0,Wunderground v.1.15,2013-09-19 04:01:00,
2013-09-18 23:06:00,69.0,66.6,29.86,SSE,153,1.0,4.0,92,0.00,,,0.06,0,Wunderground v.1.15,2013-09-19 04:06:00,
2013-09-18 23:08:00,69.0,66.6,29.86,SSE,165,3.0,4.0,92,0.00,,,0.06,0,Wunderground v.1.15,2013-09-19 04:08:00,
2013-09-18 23:13:00,69.0,66.6,29.86,South,175,2.0,6.0,92,0.00,,,0.06,0,Wunderground v.1.15,2013-09-19 04:13:00,
2013-09-18 23:18:00,69.1,66.7,29.86,South,172,0.0,6.0,92,0.00,,,0.06,0,Wunderground v.1.15,2013-09-19 04:18:00,
2013-09-18 23:23:00,69.2,66.8,29.86,South,175,1.0,6.0,92,0.00,,,0.06,0,Wunderground v.1.15,2013-09-19 04:23:00,
2013-09-18 23:28:00,69.3,66.9,29.86,SSE,159,3.0,7.0,92,0.00,,,0.06,0,Wunderground v.1.15,2013-09-19 04:28:00,
2013-09-18 23:33:00,69.3,66.9,29.86,SSE,157,3.0,4.0,92,0.00,,,0.06,0,Wunderground v.1.15,2013-09-19 04:33:00,
2013-09-18 23:38:00,69.4,67.0,29.86,SSE,162,1.0,7.0,92,0.00,,,0.06,0,Wunderground v.1.15,2013-09-19 04:38:00,
2013-09-18 23:43:00,69.4,67.0,29.86,SSE,163,3.0,6.0,92,0.00,,,0.06,0,Wunderground v.1.15,2013-09-19 04:43:00,
2013-09-18 23:48:00,69.5,66.8,29.86,SE,146,3.0,6.0,91,0.00,,,0.06,0,Wunderground v.1.15,2013-09-19 04:48:00,
2013-09-18 23:53:00,69.5,66.8,29.86,SSE,162,1.0,4.0,91,0.00,,,0.06,0,Wunderground v.1.15,2013-09-19 04:53:00,
2013-09-18 23:58:00,69.5,66.8,29.86,SSE,167,0.0,4.0,91,0.00,,,0.06,0,Wunderground v.1.15,2013-09-19 04:58:00,